Notices

What’s New in latest Release from January 14th 2021:

·       In Historical Hourly Data Report, users can switch between Local Standard Time (LST) and Universal Time Coordinates (UTC) time.

·       In Historical Hourly Data Report, we have an addition of a new column to display hourly precipitation data for the stations where the data are available, from 2001 onwards.

·       Expanded the Search Options of the Canadian Historical Weather Radar, users now able to select 24 hours (1 image every hour) image viewing duration.

Please note that the IDF dataset is available through this link: Intensity-Duration-Frequency (IDF) Files .

Hourly Data Report for November 24, 2019

QUALICUM BEACH AIRPORT
BRITISH COLUMBIA
Current Station Operator: ECCC - MSC

49°20'14.000" N
124°23'38.000" W
58.20 m
1026562
71766
VOQ

Download Data

Hourly Data (November 2019)
Hourly Data Report for November 24, 2019
TIME
LST
Temp Definition
°C
Dew Point Definition
°C
Rel Hum Definition
%
Precip. Amount Definition
mm

Wind Dir Definition
10's deg

Wind Spd Definition
km/h
Visibility Definition
km
Stn Press Definition
kPa
Hmdx Definition


Wind Chill Definition


Weather Definition


00:00 9.4 7.4 87 LegendMM 30 5   101.14     LegendNANA
01:00 9.2 5.7 79 LegendMM 31 16   101.23     LegendNANA
02:00 9.1 5.2 77 LegendMM 33 13   101.33     LegendNANA
03:00 8.5 4.6 77 LegendMM 31 10   101.43     LegendNANA
04:00 5.6 3.8 88 LegendMM 29 5   101.45     LegendNANA
05:00 4.3 3.4 94 LegendMM 27 5   101.50     LegendNANA
06:00 3.5 3.1 97 LegendMM 24 3   101.51     LegendNANA
07:00 3.0 2.6 97 LegendMM 26 5   101.54     LegendNANA
08:00 1.6 1.2 97 LegendMM 23 1   101.57     LegendNANA
09:00 3.5 3.0 96 LegendMM 0 1   101.63     LegendNANA
10:00 7.1 5.0 86 LegendMM 0 1   101.70     LegendNANA
11:00 9.1 4.7 74 LegendMM 36 3   101.72     LegendNANA
12:00 9.3 4.0 69 LegendMM 29 4   101.67     LegendNANA
13:00 9.5 3.6 67 LegendMM 31 6   101.65     LegendNANA
14:00 9.8 4.2 68 LegendMM 1 3   101.61     LegendNANA
15:00 9.7 4.4 70 LegendMM 12 1   101.57     LegendNANA
16:00 7.0 4.7 85 LegendMM 19 2   101.50     LegendNANA
17:00 5.1 4.0 92 LegendMM 30 2   101.45     LegendNANA
18:00 4.5 3.7 94 LegendMM 24 2   101.43     LegendNANA
19:00 5.4 4.2 92 LegendMM 28 1   101.39     LegendNANA
20:00 4.7 3.9 95 LegendMM 22 2   101.35     LegendNANA
21:00 4.6 4.0 96 LegendMM 25 2   101.38     LegendNANA
22:00 4.8 4.0 95 LegendMM 32 20   101.45     LegendNANA
23:00 4.0 3.3 95 LegendMM 25 6   101.42     LegendNANA

Notes on Data Quality.

Legend

  • E = Estimated
  • M = Missing
  • NA = Not Available*
  • [empty] = Indicates an unobserved value
Date modified: